Starlink 4458

operational
NORAD ID: 53668 Int'l Des: 2022-105 Owner: SPXS Country: US Constellation: starlink
LEOCIRCULARRETROGRADESSO

Starlink 4458について

説明を読み込み中...

リアルタイム位置

3D地球を読み込み中...

次回通過

高度履歴

Altitude vs Time

uPlot chart will show altitude changes over time

軌道要素

1 53668U 22105W 25352.56811313 -.00000247 00000-0 -12890-4 0 9992
2 53668 97.6020 231.2119 0001866 86.4721 273.6719 15.05647134181092
Epoch: Dec 18, 2025 • Age: 15 hours

現在のステータス

高度 552.5 km
速度 7.59 km/s
衛星直下点 27.63°N, 102.17°W
打ち上げ日 Aug 31, 2022
運用期間 3.2 years
タイプ internet

技術仕様

分類 Payload
質量 300.00 kg
乾燥質量 290.00 kg
総質量 300.00 kg
長さ 0.20 m
直径 2.80 m
スパン 9.00 m
形状 Box + pan
製造者 SPXS
バスタイプ Starlink
フェーズステータス In Orbit
所有者/国 SPXS/US

大規模コンステレーション

Loading constellations...